STARLINK-31674, 59517

Orbit data source: Space-Track

STARLINK-31674, 59517 is a payload satellite owned by SpaceX/Seattle (US) in LEO that was launched on Wed, 17 Apr 2024 UTC via an FALCON 9 launch vehicle from the Air Force Eastern Test Range (AFETR). Payload-class satellites include a variety of spacecraft equipped with specific instruments for various scientific and technological missions. These include communications satellites like Starlink; space stations such as the ISS; scientific satellites like the Hubble; Earth observation satellites from companies like Planet Labs, Umbra, and HawkEye 360; GPS; miniature CubeSats for education and research; and military/defense satellites.

Loading next visibility...
Identifier
59517, 2024-073G
Orbit
LEO
Country
Flag of USUS
Related business
Manufacturer
SpaceX/Seattle
Mission
Operational spacecraft
Bus & Motor
STARLINK V2M, Unknown motor
Mass
730 kg wet, ~700 kg dry
Launch date (UTC)
2024-04-17 (1 year ago)
Launch vehicle
FALCON 9
Launch site
Air Force Eastern Test Range (AFETR)
Object type
Payload
Rocket body
Debris
Shape & HBR
Unknown
Radar Cross Section
Large (>1 m²)

Expand to show TLE details & history
Last TLE update: 15 hours ago

TLE from 15 hours ago
0 STARLINK-31674
1 59517U 24073G   25260.26512031 -.00001470  00000-0 -43950-4 0  9997
2 59517  43.0028 217.3418 0000796  66.9798 293.1137 15.27564343 79652
Epoch: 2025-09-17T06:21Z
TLE epoch observation values (Epoch: 2025-09-17T06:21:46.394Z)
Latitude
-0.00007°
Longitude
125.45486°
Altitude
482.657 km
Speed
7.626 km/s
True Right ascension
14h 29m 22s
True Declination
0° 00' 00"
Sunlit
Object was in daylight at epoch
Visualization orbit readout
Latitude
Unknown
Longitude
Unknown
Altitude
Unknown
Speed
Unknown
Apparent Right ascension
Unknown
Apparent Declination
Unknown
Sunlit
N/A
Visualization observer readout
Local Sidereal Time
14:35:42
Azimuth
Unknown
Elevation
Unknown
Doppler factor
Unknown
Orbital elements
Apogee altitude
485.587 km
Perigee altitude
484.494 km
Semi-major axis
6,863.178 km
Eccentricity
0.00008
Inclination
43.0028°
RAAN
217.3418°
Arg. of periapsis
66.9798°
True anomaly
293.10531°
Mean anomaly
293.1137°
Eccentric anomaly
293.10951°
Mean motion
3.81729 °/min
Orbital period
94.31 mins
BSTAR
-0.00004395
Loading maneuver chart data...
Computing Atmospheric mass density...
Loading historical data...
Loading historical data...
Loading historical data...
Loading historical data...
Loading historical data...
Loading historical data...
Loading historical data...

Documentation

Showing up to 5 results
|